Flag for Norway Weather past 2 weeks in Fevik, Norway

Now
59 °F

Cool.


Feels Like: N/A
Forecast: 54 / 67 °F
Wind: N/A

Location: Torungen Fyr

Current Time: Aug 21, 2014 at 12:32:05 AM

Latest Report: Aug 20, 2014 at 11:00 PM


Visibility: N/A

Pressure: 29.56 "Hg

Humidity: 65%

Dew point: 47 °F

Location of FevikLocation

Historic Weather in Fevik — Graph

°F

Fevik temperature yesterday

Maximum temperature yesterday: 67 °F (at 12:00 PM)
Minimum temperature yesterday: 58 °F (at 5:00 AM)
Average temperature yesterday: 61 °F

Past Weeks' High & Low Weather Summary

 TemperatureHumidityPressure
High70 °F (Aug 16, 4:00 PM)97% (Aug 8, 5:00 AM)29.94 "Hg (Aug 8, 5:00 AM)
Low51 °F (Aug 18, 6:00 AM)40% (Aug 16, 6:00 PM)29.18 "Hg (Aug 18, 11:00 AM)
Average62 °F79%29.60 "Hg
* Reported Aug 5 10:00 PM — Aug 20 10:00 PM, Fevik, Weather by CustomWeather, © 2014

Note: Actual official high and low records may vary slightly from our data, if they occured in-between our weather recording intervals... More about our weather records

Advertising

Fevik weather history for previous 24 hours

 ConditionsComfort  
Time TempWeatherWind HumidityBarometerVisibility
10:00 PM
Aug 20
60 °FCool.N/A67%29.55 "HgN/A
9:00 PM61 °FCool.N/A67%29.54 "HgN/A
8:00 PM62 °FCool.N/A69%29.50 "HgN/A
7:00 PM62 °FCool.N/A65%29.50 "HgN/A
6:00 PM64 °FMild.N/A62%29.50 "HgN/A
5:00 PM63 °FMild.N/A78%29.47 "HgN/A
4:00 PM62 °FCool.N/A75%29.47 "HgN/A
3:00 PM63 °FMild.N/A69%29.47 "HgN/A
2:00 PM62 °FMild.N/A74%29.47 "HgN/A
1:00 PM66 °FMild.N/A60%29.44 "HgN/A
12:00 PM67 °FMild.N/A54%29.44 "HgN/A
11:00 AM65 °FMild.N/A55%29.44 "HgN/A
10:00 AM63 °FMild.N/A61%29.44 "HgN/A
9:00 AM60 °FCool.N/A67%29.44 "HgN/A
8:00 AM59 °FCool.N/A68%29.41 "HgN/A
7:00 AM59 °FCool.N/A68%29.41 "HgN/A
6:00 AM58 °FCool.N/A70%29.41 "HgN/A
5:00 AM58 °FCool.N/A72%29.38 "HgN/A
4:00 AM58 °FCool.N/A72%29.38 "HgN/A
3:00 AM59 °FCool.N/A70%29.38 "HgN/A
2:00 AM59 °FCool.N/A69%29.38 "HgN/A
1:00 AM59 °FCool.N/A68%29.35 "HgN/A
12:00 AM60 °FCool.N/A68%29.35 "HgN/A
Weather by CustomWeather, © 2014

See weather overviewHow to use our weather pages